[[{"header":{"parameterUnit":"m.s-1","parameterCategory":1,"la1":30.2991,"la2":30.254,"lo1":-89.0895,"lo2":-89.0444,"dy":0.0017,"dx":0.0017,"nx":28,"ny":28,"refTime":"2023-09-10T21:00:00:Z","depth":0,"parameterNumber":2,"parameterNumberName":"U-component_of_WINDS"},"data":[0,0,0,0,0,0,0,0,0,0,0,0,0,0,0,0,0,0,0,0,0,0,0,0,0,0,0,0,0,0,0,0,0,0,0,0,0,0,0,0,0,0,0,0,0,0,0,0,0,0,0,0,0,0,0,0,0,0,-0.2069,-0.2069,0,-0.2108,-0.2109,-0.2109,-0.2119,-0.2119,-0.2119,-0.2118,-0.216,-0.2162,-0.2163,0,0,0,0,0,0,0,0,0,0,0,0,0,-0.2004,-0.2005,-0.2069,-0.2069,-0.207,-0.2108,-0.2109,-0.2109,-0.2119,-0.2119,-0.2118,-0.2118,-0.216,-0.2161,-0.2163,0,0,0,0,0,0,0,0,0,0,0,0,0,-0.2037,-0.2006,-0.2069,-0.2079,-0.2081,-0.2108,-0.2109,-0.211,-0.2119,-0.2119,-0.2118,-0.2118,-0.2159,-0.2161,-0.2163,-0.2184,0,0,-0.217,-0.217,0,0,0,0,0,0,0,0,-0.2035,-0.2039,-0.2077,-0.2079,-0.208,-0.2108,-0.2101,-0.2135,-0.2119,-0.2105,-0.2118,-0.2118,-0.2143,-0.2147,-0.2155,-0.2186,-0.2188,-0.217,-0.2171,-0.2172,-0.2172,0,0,0,0,0,0,0,-0.2033,-0.2038,-0.2085,-0.2078,-0.208,-0.2083,-0.2087,-0.2108,-0.2126,-0.2106,-0.2107,-0.2111,-0.2144,-0.2153,-0.2156,-0.2188,-0.217,-0.2171,-0.2173,-0.2174,-0.2239,-0.224,0,0,0,0,0,0,-0.2028,-0.2036,-0.2083,-0.2086,-0.2056,-0.2084,-0.2089,-0.21,-0.2126,-0.2129,-0.2111,-0.2111,-0.215,-0.2154,-0.2158,-0.2184,-0.2172,-0.2174,-0.2175,-0.2239,-0.2239,-0.224,0,0,0,0,0,0,-0.2027,-0.2032,-0.2082,-0.2061,-0.2067,-0.2086,-0.2098,-0.2101,-0.211,-0.213,-0.2133,-0.2117,-0.215,-0.2155,-0.2177,-0.2186,-0.2175,-0.2177,-0.2238,-0.2239,-0.224,-0.2237,0,0,0,0,0,0,-0.2025,-0.2032,-0.2039,-0.2061,-0.2068,-0.21,-0.2098,-0.2102,-0.2113,-0.2113,-0.2136,-0.2139,-0.215,-0.2174,-0.2179,-0.2189,-0.2178,-0.2238,-0.2239,-0.2239,-0.2237,-0.2238,-0.2239,0,0,0,0,0,-0.2023,-0.2037,-0.2039,-0.2045,-0.2078,-0.2101,-0.2105,-0.2116,-0.2114,-0.2122,-0.2135,-0.2139,-0.2184,-0.2177,-0.2182,-0.2192,-0.2237,-0.2238,-0.2239,-0.2236,-0.2238,-0.2239,0,0,0,0,0,0,-0.2016,-0.204,-0.2043,-0.2065,-0.2081,-0.2102,-0.2113,-0.2117,-0.2134,-0.2134,-0.2148,-0.2153,-0.2175,-0.2186,-0.2177,-0.2214,-0.2211,-0.2213,-0.2206,-0.2208,-0.2209,-0.2206,-0.218,0,0,0,0,0,-0.2017,-0.2033,-0.2053,-0.207,-0.2078,-0.2094,-0.2104,-0.2112,-0.2129,-0.2136,-0.215,-0.2167,-0.2185,-0.2197,-0.2215,-0.2238,-0.2244,-0.2248,-0.2249,-0.225,-0.2252,-0.2267,-0.2269,-0.2244,-0.2244,-0.2244,0,0,-0.2019,-0.2034,-0.2044,-0.2069,-0.2083,-0.2099,-0.21,-0.2117,-0.213,-0.2138,-0.2161,-0.2172,-0.2192,-0.2216,-0.2227,-0.2225,-0.226,-0.2251,-0.2252,-0.2254,-0.2268,-0.227,-0.2273,-0.2245,-0.2244,-0.2244,0,0,-0.2032,-0.2045,-0.2061,-0.2075,-0.2094,-0.2105,-0.2109,-0.213,-0.2138,-0.2161,-0.2168,-0.2184,-0.2214,-0.2229,-0.224,-0.226,-0.2264,-0.2265,-0.2271,-0.2285,-0.2287,-0.2289,-0.2297,-0.23,-0.2267,-0.2267,-0.2267,0,-0.2033,-0.2058,-0.2069,-0.2087,-0.2099,-0.2107,-0.2124,-0.2136,-0.2161,-0.2169,-0.2168,-0.2207,-0.2221,-0.2249,-0.2253,-0.2262,-0.2268,-0.2263,-0.2286,-0.2288,-0.229,-0.2298,-0.23,-0.2267,-0.2267,-0.2267,-0.2267,0,-0.2058,-0.2076,-0.2087,-0.211,-0.2123,-0.2141,-0.2155,-0.2167,-0.2174,-0.2185,-0.2209,-0.2226,-0.2248,-0.2255,-0.2261,-0.2283,-0.2282,-0.2283,-0.228,-0.2292,-0.23,-0.2303,-0.2267,-0.2267,-0.2267,-0.2267,0,0,-0.2068,-0.2098,-0.2102,-0.2114,-0.2137,-0.2151,-0.2169,-0.219,-0.2201,-0.2218,-0.2234,-0.226,-0.2261,-0.2274,-0.2282,-0.2295,-0.2311,-0.2294,-0.2295,-0.2297,-0.2338,-0.2338,-0.2341,-0.2314,-0.2314,-0.2315,-0.2337,0,-0.2085,-0.2117,-0.2128,-0.2155,-0.2172,-0.2181,-0.2197,-0.2213,-0.2224,-0.2241,-0.2253,-0.2272,-0.2272,-0.228,-0.2292,-0.2306,-0.2319,-0.2304,-0.233,-0.2331,-0.2325,-0.2345,-0.2345,-0.2365,-0.234,-0.234,-0.234,0,-0.2108,-0.2126,-0.2155,-0.2177,-0.2184,-0.2198,-0.2219,-0.2235,-0.2254,-0.2261,-0.2276,-0.2284,-0.2304,-0.2299,-0.2328,-0.2318,-0.2329,-0.2338,-0.2339,-0.2343,-0.2337,-0.235,-0.2371,-0.2374,-0.2345,-0.2345,-0.2344,0,-0.2114,-0.2145,-0.2166,-0.2176,-0.2201,-0.2211,-0.2223,-0.2241,-0.2254,-0.2272,-0.2281,-0.2302,-0.2313,-0.2329,-0.2343,-0.2338,-0.2371,-0.2367,-0.2379,-0.2379,-0.2386,-0.2385,-0.241,-0.2392,-0.2392,-0.2392,-0.2392,0,-0.2132,-0.2149,-0.2169,-0.2182,-0.2203,-0.2216,-0.2236,-0.2248,-0.2265,-0.2281,-0.229,-0.2305,-0.2321,-0.2339,-0.235,-0.2373,-0.2378,-0.2385,-0.2388,-0.2385,-0.2384,-0.2393,-0.2392,-0.2392,-0.2392,-0.2392,-0.2392,0,-0.2141,-0.2155,-0.2179,-0.2202,-0.2208,-0.2222,-0.2242,-0.2256,-0.2268,-0.2289,-0.2294,-0.2313,-0.2334,-0.2349,-0.2377,-0.2384,-0.241,-0.2412,-0.2403,-0.2405,-0.2416,-0.2415,-0.2448,-0.2453,-0.243,-0.243,-0.2431,0,-0.2152,-0.2166,-0.219,-0.2202,-0.2213,-0.2231,-0.2244,-0.2258,-0.2271,-0.2295,-0.2306,-0.2328,-0.2347,-0.2381,-0.2398,-0.2419,-0.2422,-0.2432,-0.2426,-0.2423,-0.2424,-0.2423,-0.2425,-0.2434,-0.2434,-0.2434,-0.2434,0,-0.217,-0.2177,-0.2195,-0.2215,-0.2231,-0.2248,-0.2265,-0.2274,-0.2291,-0.2305,-0.2328,-0.2342,-0.237,-0.2393,-0.2416,-0.2429,-0.2435,-0.2436,-0.244,-0.2437,-0.2432,-0.2436,-0.2407,-0.2435,-0.2435,-0.2435,-0.2435,-0.2435,-0.2182,-0.2195,-0.2214,-0.2234,-0.2249,-0.2265,-0.2279,-0.2293,-0.2311,-0.2336,-0.2343,-0.2366,-0.2386,-0.2418,-0.2431,-0.245,-0.2449,-0.2455,-0.2457,-0.2458,-0.2459,-0.2429,-0.2454,-0.2454,-0.2454,-0.2454,-0.2454,0,-0.2201,-0.2214,-0.2232,-0.2256,-0.2273,-0.2276,-0.2296,-0.2309,-0.233,-0.2348,-0.2366,-0.2392,-0.2414,-0.2432,-0.2455,-0.2467,-0.2471,-0.2473,-0.2473,-0.2476,-0.2457,-0.2452,-0.247,-0.247,-0.247,-0.247,-0.247,-0.247,-0.2213,-0.2236,-0.2245,-0.2275,-0.2288,-0.2311,-0.2322,-0.2338,-0.2352,-0.2381,-0.2399,-0.2411,-0.243,-0.2454,-0.2475,-0.248,-0.2488,-0.249,-0.2496,-0.2478,-0.2477,-0.2475,-0.247,-0.2492,-0.2492,-0.2513,-0.2513,-0.2513]},{"header":{"parameterUnit":"m.s-1","parameterCategory":1,"la1":30.2991,"la2":30.254,"lo1":-89.0895,"lo2":-89.0444,"dy":0.0017,"dx":0.0017,"nx":28,"ny":28,"refTime":"2023-09-10T21:00:00:Z","depth":0,"parameterNumber":3,"parameterNumberName":"V-component_of_WINDS"},"data":[0,0,0,0,0,0,0,0,0,0,0,0,0,0,0,0,0,0,0,0,0,0,0,0,0,0,0,0,0,0,0,0,0,0,0,0,0,0,0,0,0,0,0,0,0,0,0,0,0,0,0,0,0,0,0,0,0,0,2.3546,2.3546,0,2.3552,2.3552,2.3552,2.3517,2.3516,2.3515,2.3514,2.352,2.3521,2.3522,0,0,0,0,0,0,0,0,0,0,0,0,0,2.3505,2.3505,2.3546,2.3546,2.3546,2.3552,2.3552,2.3552,2.3518,2.3516,2.3515,2.3514,2.352,2.3521,2.3522,0,0,0,0,0,0,0,0,0,0,0,0,0,2.3518,2.3506,2.3546,2.353,2.3528,2.3552,2.3552,2.3552,2.3518,2.3516,2.3515,2.3513,2.3519,2.3521,2.3522,2.3562,0,0,2.3527,2.3528,0,0,0,0,0,0,0,0,2.3517,2.3519,2.3532,2.3531,2.3529,2.3532,2.3539,2.3555,2.3518,2.3522,2.3514,2.3513,2.3525,2.3526,2.353,2.3562,2.3562,2.3527,2.3528,2.3529,2.3529,0,0,0,0,0,0,0,2.3516,2.3519,2.3548,2.3532,2.3531,2.3522,2.3522,2.3542,2.3532,2.3521,2.3519,2.352,2.3524,2.3529,2.353,2.3562,2.3527,2.3529,2.353,2.353,2.3624,2.3625,0,0,0,0,0,0,2.3517,2.3518,2.3548,2.3549,2.3519,2.3524,2.3524,2.3533,2.3531,2.353,2.3521,2.3518,2.3527,2.3529,2.353,2.3574,2.3529,2.353,2.3531,2.3622,2.3624,2.3626,0,0,0,0,0,0,2.3517,2.352,2.3548,2.3533,2.3536,2.3526,2.3536,2.3534,2.3539,2.3531,2.3529,2.3528,2.3526,2.3528,2.3554,2.3574,2.3531,2.3533,2.362,2.3623,2.3625,2.3664,0,0,0,0,0,0,2.3516,2.352,2.3536,2.3533,2.3537,2.3572,2.3538,2.3535,2.3541,2.3538,2.3537,2.3536,2.3525,2.3551,2.3555,2.3576,2.3534,2.3618,2.3621,2.3624,2.3661,2.3667,2.3673,0,0,0,0,0,2.3514,2.3547,2.3537,2.354,2.3555,2.3573,2.3575,2.3562,2.3543,2.3558,2.3553,2.3536,2.3572,2.3554,2.3558,2.3579,2.3617,2.362,2.3624,2.3658,2.3666,2.3673,0,0,0,0,0,0,2.3552,2.3546,2.3535,2.3568,2.3571,2.3567,2.3585,2.3571,2.3579,2.3575,2.3559,2.3559,2.3587,2.3586,2.3567,2.3616,2.3591,2.3595,2.3616,2.3623,2.3629,2.3628,2.3535,0,0,0,0,0,2.3564,2.3579,2.3573,2.3603,2.3605,2.3595,2.3602,2.3592,2.3594,2.3596,2.3593,2.3596,2.3607,2.3616,2.3626,2.3661,2.3659,2.3677,2.3683,2.3688,2.3692,2.3708,2.3715,2.3637,2.3637,2.3637,0,0,2.359,2.3588,2.3599,2.361,2.3612,2.3627,2.3596,2.3614,2.3625,2.3598,2.3621,2.3619,2.3622,2.3651,2.3664,2.3651,2.3713,2.3693,2.3697,2.3697,2.3712,2.372,2.3726,2.3639,2.3639,2.3638,0,0,2.3643,2.3644,2.3668,2.3669,2.3672,2.3664,2.367,2.3668,2.3665,2.3689,2.3668,2.3681,2.3702,2.3704,2.3708,2.376,2.3744,2.3764,2.3795,2.3811,2.3818,2.3823,2.384,2.3846,2.3768,2.3768,2.3768,0,2.3674,2.3696,2.3682,2.37,2.3705,2.3682,2.3705,2.3707,2.3713,2.3716,2.3702,2.3727,2.3727,2.3756,2.3768,2.3773,2.3778,2.3764,2.3818,2.3823,2.3828,2.3844,2.385,2.3771,2.377,2.377,2.377,0,2.3733,2.3748,2.3767,2.3772,2.3779,2.38,2.3789,2.3798,2.3787,2.3781,2.3804,2.3803,2.3812,2.3818,2.3808,2.3845,2.3837,2.3821,2.3795,2.3838,2.3852,2.3858,2.3774,2.3773,2.3772,2.3772,0,0,2.3809,2.3806,2.3813,2.3814,2.3814,2.3825,2.3845,2.3853,2.386,2.3865,2.388,2.3898,2.3882,2.3886,2.3876,2.3891,2.393,2.3872,2.3872,2.3881,2.3968,2.3979,2.3986,2.392,2.3921,2.3922,2.3967,0,2.386,2.3892,2.3879,2.3912,2.3925,2.3903,2.3919,2.3921,2.3916,2.3926,2.3921,2.3933,2.3912,2.3914,2.3928,2.3922,2.3947,2.3919,2.3932,2.3932,2.393,2.3994,2.4006,2.4049,2.3973,2.3974,2.3975,0,2.3922,2.3928,2.3962,2.3958,2.3963,2.3979,2.3984,2.3995,2.3996,2.3991,2.3995,2.3982,2.3999,2.3975,2.3998,2.3979,2.3984,2.3982,2.3984,2.3983,2.3955,2.3993,2.4063,2.4068,2.3984,2.3983,2.3983,0,2.3972,2.3989,2.4011,2.4013,2.401,2.402,2.4019,2.4019,2.4024,2.403,2.4033,2.4041,2.4044,2.405,2.4039,2.4022,2.4063,2.4038,2.4058,2.4059,2.4067,2.4066,2.4136,2.4073,2.4073,2.4073,2.4073,0,2.4028,2.4049,2.4033,2.4046,2.4069,2.4054,2.4077,2.4074,2.4073,2.4085,2.4067,2.4078,2.4063,2.4073,2.4064,2.4084,2.4086,2.4082,2.4079,2.4083,2.4083,2.4084,2.408,2.4075,2.4074,2.4074,2.4074,0,2.4087,2.4077,2.4099,2.4094,2.4093,2.4109,2.4105,2.4116,2.411,2.4125,2.4128,2.4118,2.4128,2.4118,2.4128,2.4122,2.4147,2.4141,2.4147,2.4144,2.4165,2.4162,2.4236,2.4244,2.4178,2.4179,2.418,0,2.4122,2.4138,2.4134,2.414,2.414,2.4151,2.4156,2.4142,2.4148,2.4149,2.416,2.4169,2.4175,2.4193,2.4187,2.4194,2.4186,2.4212,2.4187,2.419,2.4184,2.4183,2.4183,2.4216,2.4217,2.4218,2.4218,0,2.4185,2.4179,2.4187,2.4193,2.4199,2.4203,2.4206,2.4212,2.4198,2.4205,2.4215,2.422,2.423,2.4238,2.4244,2.4242,2.4227,2.4226,2.4231,2.4234,2.4235,2.4232,2.4158,2.4224,2.4224,2.4223,2.4223,2.4223,2.4232,2.4244,2.4242,2.4251,2.4251,2.4254,2.4264,2.4259,2.4267,2.4273,2.4265,2.4277,2.4276,2.4281,2.4282,2.4291,2.428,2.4287,2.4289,2.429,2.4292,2.4236,2.4292,2.4292,2.4292,2.4292,2.4291,0,2.4292,2.4289,2.4298,2.4302,2.4308,2.4294,2.4296,2.4302,2.4313,2.4314,2.432,2.4331,2.4339,2.4333,2.4339,2.4347,2.4341,2.4349,2.4348,2.4347,2.4303,2.4297,2.4355,2.4355,2.4355,2.4355,2.4355,2.4355,2.4324,2.4342,2.4336,2.4354,2.4352,2.4363,2.4365,2.4367,2.4367,2.438,2.4386,2.4382,2.438,2.4386,2.4392,2.439,2.4393,2.4403,2.4399,2.4357,2.4351,2.4345,2.4339,2.4405,2.4405,2.4442,2.4443,2.4443]}]]